Location: Bieujac
(44.5398°N, 0.1549°W)
Time: 10:08:03
(UTC+00:00)

Tsikada Rocket - Pass Details

Date: 17 November 2019
Orbit: 958 x 1009 km, 82.9° (Epoch: 12 December)

Event Time Altitude Azimuth Distance (km) Brightness Sun altitude
Rises 06:22:26 0° 346° (NNW) 3,746 6.7 -6.9°
Reaches altitude 10° 06:25:04 10° 341° (NNW) 2,787 6.0 -6.4°
Maximum altitude 06:31:06 46° 270° (W) 1,322 4.4 -5.4°
Drops below altitude 10° 06:37:03 10° 200° (SSW) 2,741 6.4 -4.4°
Sets 06:39:38 0° 194° (SSW) 3,677 7.1 -4.0°
